Wind_Speed
6 6 5 5 5 4 4 3 2 1 1 2 3 3 3 4 4 4 5 5 5 5 5 5 5 6 6 6 6 5 5 4 3 3 4 4 3 3 3 3 3 3 3 3
7 6 6 5 5 5 5 4 3 3 3 2 3 3 4 3 4 4 4 5 5 6 5 5 5 5 6 6 6 6 5 4 4 4 4 4 4 4 3 3 4 4 3 4
7 6 6 6 5 5 5 4 4 4 4 4 4 4 4 4 4 4 4 4 5 6 6 6 6 6 6 6 6 6 5 4 4 4 4 4 5 4 3 3 4 4 5 5
7 7 7 7 6 6 6 6 6 5 5 5 5 4 4 4 5 5 5 4 5 6 6 6 6 7 7 7 7 7 6 5 5 5 5 5 5 5 5 4 4 4 5 5
7 7 7 7 7 7 7 7 7 7 7 7 6 5 5 5 5 6 5 6 6 7 7 7 7 8 8 7 7 7 7 6 6 6 6 5 5 5 5 5 5 5 5 5
8 8 8 8 8 9 8 8 9 9 8 8 7 6 6 6 6 6 6 7 7 8 8 8 9 9 9 8 8 8 8 7 7 7 6 6 6 6 6 5 5 6 6 6
10 9 9 9 8 9 10 9 9 9 9 8 8 8 7 7 7 8 8 8 9 9 8 9 10 10 9 9 9 9 9 8 8 8 7 7 7 7 7 7 6 7 7 7
11 10 9 9 9 9 10 11 11 10 10 9 9 9 9 9 9 9 10 10 10 10 9 9 9 9 9 9 9 9 9 9 9 9 9 9 9 8 8 8 8 8 8 8
11 11 10 10 9 10 10 11 11 12 11 11 11 11 10 10 10 10 10 11 11 11 11 10 10 10 10 10 9 10 10 10 10 10 10 10 10 10 10 10 10 10 10 10
11 12 11 11 11 11 11 11 12 12 12 13 12 12 11 11 11 11 11 11 11 11 11 11 11 11 11 10 10 11 11 11 11 10 10 10 10 11 11 12 12 12 12 12
12 12 12 12 12 12 12 12 13 13 14 14 15 13 13 12 12 13 13 13 12 12 12 12 12 12 12 12 12 12 12 12 12 12 12 12 12 12 12 12 12 12 12 12
14 13 13 13 13 13 13 13 14 14 14 15 17 15 15 14 13 13 14 14 14 13 13 13 13 13 13 13 13 13 13 13 13 13 13 13 13 13 13 13 13 13 13 13
14 14 14 14 14 14 15 14 14 15 16 17 18 17 16 16 15 15 15 15 14 13 14 14 14 14 14 14 14 14 14 14 14 15 15 14 14 14 14 14 14 14 14 14
16 16 15 15 15 16 16 16 16 16 17 18 19 18 17 17 16 16 16 16 15 15 14 14 14 14 14 14 15 15 15 16 16 16 16 16 15 15 15 15 15 14 14 14
17 17 17 17 17 17 17 17 17 18 17 18 18 18 18 18 18 18 17 17 16 16 15 15 15 15 16 16 16 16 16 16 16 16 16 16 17 17 17 16 15 15 15 15
18 18 18 18 18 19 19 18 18 18 18 18 18 18 18 18 18 18 18 17 16 16 16 16 16 16 16 16 17 17 18 17 17 17 17 17 18 18 18 17 16 16 16 16
19 19 19 20 20 21 20 18 19 19 19 19 19 19 18 18 18 18 18 17 18 18 18 18 17 17 17 17 17 18 18 18 17 17 17 17 18 17 17 17 17 17 17 17
21 21 21 21 21 22 19 19 19 20 20 20 20 19 19 19 18 18 18 19 19 19 19 18 17 17 17 17 18 18 18 18 17 17 17 17 17 18 17 16 17 17 16 16
23 22 23 22 23 22 20 20 20 21 20 20 20 19 19 19 19 19 19 20 20 20 19 19 18 19 18 18 19 19 18 18 17 17 18 18 17 17 17 17 17 17 18 18
25 25 24 24 24 23 21 20 21 22 21 20 20 20 20 20 20 20 21 21 20 20 20 20 20 20 20 20 19 19 18 18 18 17 17 17 17 17 18 18 18 18 19 19
25 26 26 26 26 25 23 22 22 23 21 21 21 21 21 21 21 21 21 22 22 22 22 21 21 21 20 20 20 20 19 19 19 18 18 18 18 19 19 19 19 20 20 20
27 28 27 27 27 25 23 23 23 23 22 23 23 22 23 23 22 22 22 23 23 23 22 22 21 21 21 21 21 21 20 20 20 19 19 19 20 20 21 20 20 21 21 21
28 28 29 29 28 26 25 25 25 25 25 24 24 24 24 24 24 24 23 23 23 23 22 22 22 21 21 22 22 22 22 22 22 21 21 21 21 22 22 22 22 23 23 23
28 28 29 29 28 27 27 26 26 26 26 26 25 25 25 25 25 25 24 24 24 23 23 23 23 23 23 23 22 22 22 22 22 23 22 23 23 23 23 23 24 24 24 24
29 28 29 29 29 29 28 27 27 27 27 26 26 27 27 27 27 26 26 25 25 25 24 24 24 24 24 24 23 23 22 22 23 23 23 24 24 24 25 25 25 26 26 26
30 29 29 28 28 29 29 28 27 27 27 27 27 27 27 28 28 27 27 27 27 26 26 26 25 25 25 24 24 24 23 23 23 24 24 25 25 26 26 26 27 28 28 28
Wind_Direction
259 260 258 260 261 267 272 277 295 330 5 353 353 351 359 5 358 2 3 357 352 352 353 356 356 358 355 350 347 348 349 347 346 354 350 338 325 309 292 285 290 294 291 292
256 261 260 255 250 257 266 278 301 310 312 313 323 325 329 333 342 351 353 347 342 343 343 345 346 347 342 338 335 335 340 336 331 336 334 337 327 314 300 287 289 291 287 291
258 261 261 256 253 258 266 276 286 297 300 305 312 324 322 326 329 338 344 343 335 332 329 331 333 333 329 327 325 324 328 322 320 321 320 319 322 317 314 303 295 289 283 283
256 260 263 262 264 268 268 267 273 283 295 306 310 318 318 328 330 328 330 332 328 324 322 321 324 325 320 316 316 315 314 308 307 304 305 306 311 309 302 300 293 290 289 285
252 258 265 268 263 264 264 267 274 281 288 295 300 304 313 323 327 325 324 325 324 321 314 311 312 315 313 310 309 307 304 300 296 296 297 300 304 299 291 289 288 288 286 285
250 255 262 265 264 263 262 268 274 280 284 284 294 303 310 317 323 324 324 324 321 318 313 309 307 309 311 309 307 303 300 299 292 287 290 295 293 290 286 286 288 288 285 282
246 251 259 264 267 266 264 266 270 275 278 282 290 298 309 314 316 319 320 318 316 314 311 305 302 303 306 306 305 301 296 296 290 285 285 288 287 286 287 287 288 288 285 283
249 250 257 262 266 268 267 268 270 273 274 277 282 291 303 309 309 311 314 314 312 309 306 305 301 298 300 300 300 299 296 293 288 283 283 283 281 280 281 282 283 284 284 285
251 251 255 260 264 268 271 270 270 274 276 279 282 287 298 303 305 309 310 309 307 306 305 303 301 298 295 293 292 292 292 291 288 286 283 282 281 279 277 277 279 281 282 280
254 253 253 258 263 267 270 269 271 274 278 281 283 288 294 300 301 302 304 306 306 305 304 301 300 300 297 294 291 289 289 287 286 286 286 285 284 281 279 277 278 281 281 277
253 256 256 258 260 266 270 267 269 272 275 279 282 287 293 294 296 298 301 304 304 303 299 296 295 295 294 291 290 289 287 284 283 283 283 284 284 283 281 280 279 279 279 277
255 256 257 261 263 265 268 269 268 272 276 278 281 286 287 288 291 294 298 303 304 302 296 291 290 291 292 291 289 288 286 283 281 280 279 281 282 281 279 279 279 278 278 277
256 257 256 258 261 263 266 267 270 270 273 276 280 286 288 289 290 292 295 297 299 296 294 289 288 289 288 288 288 287 286 284 280 278 278 278 278 279 278 279 279 279 277 274
256 257 259 260 263 265 266 268 269 272 273 276 281 284 286 288 290 290 292 295 294 291 289 290 289 288 287 289 289 288 287 285 281 277 276 277 277 277 277 279 278 278 278 276
258 259 261 261 262 265 266 268 271 272 274 277 281 283 285 287 288 290 293 294 293 289 290 289 289 288 287 289 290 289 288 285 282 278 277 277 277 276 277 278 277 277 276 276
256 258 260 262 263 266 266 267 270 274 275 277 279 282 286 287 289 291 294 295 294 291 290 288 288 288 289 289 289 291 289 286 283 282 280 279 278 277 276 275 276 277 277 278
256 257 259 262 263 265 265 268 269 270 273 276 279 283 285 287 288 290 292 293 293 292 290 288 287 287 287 288 290 290 290 286 282 281 280 279 277 274 273 272 274 275 276 279
256 258 260 262 263 264 267 266 268 270 272 275 278 281 283 284 285 286 288 290 291 292 291 288 286 286 286 287 288 289 287 286 283 280 280 279 277 275 273 273 275 277 279 282
254 257 259 261 262 263 263 265 268 270 271 274 276 279 280 282 283 284 284 285 286 288 288 288 287 286 286 287 289 289 287 285 282 280 278 276 277 278 275 275 277 278 279 280
253 255 258 260 262 263 265 266 268 270 270 273 275 278 280 282 282 282 281 281 281 282 283 283 283 284 285 286 286 286 286 284 282 281 279 276 276 278 276 274 276 279 280 281
253 255 257 260 262 263 265 266 267 268 272 273 275 277 278 280 281 281 280 280 280 281 281 281 281 283 283 283 283 283 283 282 279 278 277 277 277 278 278 276 276 279 281 283
254 256 258 261 263 265 267 267 267 270 271 272 274 276 278 279 279 279 280 279 279 279 280 280 281 281 281 281 282 282 281 279 277 275 276 277 277 279 278 277 277 279 282 283
252 256 259 261 263 266 266 267 266 268 270 272 274 274 276 277 279 280 279 278 279 279 279 280 280 280 279 280 281 281 279 276 275 274 276 276 278 279 279 278 278 278 280 282
253 256 258 261 262 263 266 267 267 269 271 273 274 274 275 276 277 278 278 278 279 279 278 278 279 280 280 280 280 279 278 276 274 273 274 276 277 278 278 279 279 280 281 282
254 255 258 262 263 264 266 267 269 270 271 272 272 274 276 276 276 277 278 278 278 279 279 279 280 279 280 279 278 278 277 275 274 274 274 276 277 277 278 279 280 280 281 283
254 256 258 260 262 263 264 266 267 268 269 271 273 275 276 276 277 276 276 276 277 278 279 279 278 278 278 278 279 279 278 277 276 276 276 276 276 277 278 279 280 281 281 283
Height
5885 5886 5885 5885 5885 5885 5884 5884 5883 5883 5882 5882 5881 5880 5879 5878 5877 5876 5874 5873 5872 5870 5869 5868 5866 5865 5864 5862 5861 5860 5859 5858 5857 5856 5856 5855 5855 5854 5854 5854 5853 5853 5853 5852
5885 5885 5884 5883 5883 5883 5883 5882 5882 5882 5881 5881 5880 5879 5878 5877 5876 5875 5874 5872 5871 5870 5868 5867 5866 5864 5863 5862 5860 5859 5858 5857 5856 5856 5855 5854 5854 5853 5853 5852 5852 5852 5851 5851
5882 5884 5882 5882 5882 5882 5881 5881 5881 5880 5880 5879 5879 5878 5877 5876 5875 5874 5873 5871 5870 5869 5867 5866 5865 5863 5862 5861 5859 5858 5857 5856 5856 5855 5854 5854 5853 5852 5852 5851 5851 5850 5850 5850
5881 5881 5881 5881 5880 5880 5880 5880 5879 5879 5878 5878 5877 5877 5876 5874 5873 5872 5871 5870 5868 5867 5866 5865 5863 5862 5861 5859 5858 5857 5856 5855 5854 5854 5853 5852 5852 5851 5850 5850 5849 5849 5849 5848
5879 5879 5879 5879 5879 5878 5878 5878 5878 5877 5877 5876 5875 5875 5875 5873 5872 5870 5869 5868 5867 5866 5864 5863 5862 5860 5859 5858 5857 5855 5855 5854 5853 5852 5851 5851 5850 5849 5849 5848 5848 5847 5847 5846
5877 5877 5877 5877 5876 5876 5876 5876 5876 5875 5875 5875 5873 5873 5873 5871 5870 5869 5867 5866 5865 5864 5862 5861 5860 5858 5857 5856 5855 5854 5853 5852 5851 5850 5850 5849 5848 5847 5847 5846 5846 5845 5845 5844
5874 5875 5874 5874 5874 5874 5874 5875 5874 5873 5873 5872 5871 5870 5871 5869 5868 5866 5865 5864 5862 5861 5860 5859 5857 5856 5855 5854 5853 5852 5851 5850 5849 5848 5848 5847 5846 5846 5845 5844 5844 5843 5842 5842
5871 5872 5872 5872 5872 5872 5871 5872 5872 5872 5870 5870 5869 5867 5868 5866 5865 5864 5863 5861 5860 5859 5857 5856 5855 5854 5853 5852 5851 5850 5849 5848 5847 5846 5845 5844 5844 5843 5843 5842 5841 5841 5840 5839
5868 5869 5869 5869 5869 5869 5869 5868 5869 5868 5867 5867 5866 5865 5864 5863 5862 5861 5860 5859 5857 5856 5855 5853 5852 5851 5850 5849 5848 5847 5846 5845 5844 5843 5842 5842 5841 5840 5840 5839 5838 5838 5837 5836
5865 5866 5866 5866 5866 5866 5866 5866 5865 5865 5864 5863 5863 5862 5862 5860 5859 5858 5857 5856 5854 5853 5852 5851 5849 5848 5847 5846 5845 5844 5843 5842 5841 5840 5839 5838 5838 5837 5836 5836 5835 5834 5834 5833
5861 5863 5863 5863 5863 5863 5863 5863 5862 5861 5861 5860 5859 5861 5859 5857 5856 5855 5854 5853 5852 5850 5849 5847 5846 5845 5844 5843 5842 5841 5840 5839 5838 5837 5836 5835 5834 5833 5832 5832 5831 5830 5830 5829
5858 5859 5859 5860 5860 5859 5859 5859 5859 5859 5858 5856 5855 5859 5855 5854 5853 5852 5851 5850 5848 5847 5845 5844 5842 5841 5840 5839 5838 5837 5837 5836 5835 5834 5833 5832 5831 5829 5828 5827 5827 5826 5825 5825
5854 5855 5855 5855 5857 5856 5855 5855 5855 5854 5854 5852 5851 5854 5851 5850 5849 5848 5847 5846 5844 5843 5842 5840 5839 5838 5836 5835 5834 5833 5832 5831 5830 5829 5828 5827 5826 5825 5824 5823 5822 5821 5820 5820
5849 5850 5851 5852 5851 5851 5851 5851 5851 5850 5849 5848 5848 5848 5847 5845 5844 5843 5842 5841 5840 5839 5837 5836 5835 5834 5832 5831 5830 5829 5828 5826 5825 5824 5823 5823 5822 5821 5820 5819 5817 5816 5815 5815
5845 5845 5846 5846 5846 5846 5846 5846 5846 5846 5845 5844 5844 5843 5842 5841 5840 5839 5837 5836 5835 5834 5833 5832 5831 5830 5828 5827 5825 5824 5822 5821 5820 5819 5818 5817 5817 5816 5815 5814 5813 5812 5811 5810
5840 5840 5841 5841 5841 5841 5841 5841 5841 5841 5840 5839 5838 5838 5837 5836 5835 5834 5833 5831 5830 5829 5828 5827 5826 5824 5823 5821 5820 5819 5817 5815 5814 5813 5812 5811 5811 5810 5809 5808 5808 5807 5807 5806
5834 5835 5836 5836 5836 5835 5836 5837 5836 5836 5835 5835 5834 5834 5832 5832 5831 5829 5828 5827 5825 5824 5823 5822 5820 5819 5818 5816 5815 5813 5811 5810 5808 5807 5806 5806 5805 5804 5803 5803 5802 5802 5801 5801
5829 5829 5830 5830 5831 5830 5834 5832 5831 5830 5830 5830 5829 5828 5827 5827 5826 5824 5823 5822 5820 5819 5817 5816 5815 5814 5812 5811 5809 5807 5806 5804 5803 5802 5801 5800 5799 5799 5798 5798 5797 5797 5796 5795
5823 5823 5823 5824 5823 5824 5826 5826 5825 5824 5824 5824 5824 5823 5822 5821 5820 5819 5818 5816 5815 5813 5812 5811 5809 5808 5807 5805 5803 5801 5800 5798 5797 5797 5796 5795 5794 5793 5793 5793 5792 5792 5791 5790
5816 5817 5817 5817 5817 5817 5821 5820 5819 5819 5818 5819 5818 5817 5816 5815 5815 5814 5812 5810 5809 5808 5807 5805 5804 5802 5800 5799 5797 5795 5794 5793 5792 5791 5790 5789 5789 5788 5787 5787 5787 5786 5786 5785
5809 5810 5810 5810 5810 5811 5814 5813 5813 5814 5814 5813 5812 5811 5810 5809 5809 5807 5805 5804 5803 5801 5800 5799 5797 5796 5794 5792 5791 5789 5788 5787 5786 5785 5784 5784 5783 5783 5782 5782 5781 5781 5780 5779
5802 5802 5803 5803 5803 5806 5807 5806 5807 5807 5806 5806 5805 5804 5803 5802 5801 5800 5799 5797 5796 5795 5793 5792 5790 5789 5787 5786 5784 5782 5781 5780 5779 5779 5779 5778 5778 5777 5776 5776 5775 5775 5774 5773
5794 5796 5796 5797 5799 5799 5798 5798 5799 5798 5798 5798 5798 5797 5796 5795 5794 5793 5792 5790 5789 5788 5786 5785 5783 5782 5780 5778 5777 5775 5773 5772 5772 5772 5772 5772 5771 5771 5770 5770 5769 5768 5767 5766
5786 5787 5788 5788 5790 5790 5790 5790 5790 5790 5790 5790 5790 5789 5788 5787 5786 5785 5784 5783 5782 5780 5779 5778 5776 5775 5773 5771 5770 5768 5766 5765 5764 5765 5765 5765 5765 5764 5764 5763 5762 5761 5760 5759
5778 5779 5779 5780 5781 5781 5782 5782 5782 5782 5782 5781 5781 5781 5780 5779 5778 5777 5776 5775 5774 5772 5771 5770 5769 5767 5766 5764 5763 5761 5760 5759 5758 5758 5758 5758 5758 5757 5756 5756 5755 5754 5753 5751
5769 5770 5771 5772 5772 5773 5774 5774 5773 5773 5773 5773 5772 5772 5771 5770 5769 5769 5768 5767 5766 5765 5763 5762 5761 5760 5758 5757 5755 5754 5753 5752 5751 5751 5751 5751 5750 5749 5749 5748 5747 5745 5744 5743